Aérodrome :







RETROUVEZ-NOUS SUR...

 
LOGIN :

S'inscrire | Disclaimer

   EN    FR    IT 

 









Légende :    VFR   VFR Marginal   IFR   IFR Intensif   IFR Très Intensif
Visi : 
Plafond : 
>= 8 km
>= 3000ft
5 à 8 km
1000 à 3000 ft
1500m à 5 km
500 à 1000 ft
800 à 1500m
200 à 500 ft
< 800m
< 200 ft
Symboles :   Orages  Brouillard  Fortes neiges  Fortes précipitations  Vent > 20 kt






- Altitude de l'aérodrome : 56 ft
- Code IATA : MCP


SBMQ - Macapa Int.

DERNIER METAR :
  • 040700Z 02002KT 9999 FEW015 25/25 Q1011

METARs EXPIRÉS :
  • 040600Z 01001KT 9999 FEW015 25/25 Q1012
  • 040500Z 00000KT 9999 FEW015 25/25 Q1012

TAF TAF SBMQ
Valide du 04 à 06h jusqu'au 05 à 06h UTC


040300Z 0406/0506 03005KT 8000 SCT015 TX32/0417Z TN27/0504Z
TEMPO 0409/0412 4000 SHRA BKN006
BECMG 0415/0417 SCT020 RMK PEA
FIR SBAZ / Amérique du Sud



MET'MAP, la Météo Aéronautique d'un coup d'oeil ! - Copyright ORBIFLY Décembre 2007 - Disclaimer

ORBIFLY MET'MAP TEAM :

Programmation & Développement : Alexandra Zaïnal
Sur une idée originale de : Baudouin d'Aumeries
Assistance à la programmation : Marc-Olivier Méhu
Soutien technique & logistique : Manuel Goepfert

Contact : metmap@orbifly.com




SOURCES & CREDITS :

   NOAA